Theta_e
294 294 295 295 295 296 299 301 304 307 309 312 314 314 316 316 318 318 319 320 320 321 320 320 321 322 322 322 321 320 320 320 321 321 322 321 320 319 321 320 321 320 320 320 321 321 320 321 321 321 321 320 319 319 318 319 318 318 316 316 316 316
293 293 294 294 293 293 294 296 298 305 308 309 311 312 313 313 314 315 316 317 319 319 319 319 320 320 321 321 321 321 321 321 320 320 320 321 318 321 321 320 320 319 318 318 320 320 320 320 320 321 321 320 320 319 318 317 318 317 316 315 314 315
291 290 290 290 288 288 289 293 297 303 303 307 309 311 311 311 313 314 316 316 316 316 317 317 318 319 320 320 320 319 320 320 318 320 320 318 321 320 319 319 319 319 319 319 318 320 320 320 320 320 320 320 319 318 318 317 316 316 316 314 313 311
290 289 287 285 285 288 289 291 291 294 300 306 307 307 309 310 311 312 314 313 315 315 316 316 316 317 317 317 318 317 319 319 319 320 319 320 321 319 319 319 319 318 318 318 319 318 319 320 320 320 319 318 317 317 318 316 315 314 315 314 313 311
289 287 286 287 288 289 288 288 290 293 295 297 300 305 307 308 309 309 310 311 311 313 314 313 313 312 312 314 316 315 316 317 315 314 317 318 318 316 319 318 318 317 317 317 317 318 318 319 318 318 317 316 316 316 316 316 314 313 312 311 311 311
286 285 287 289 288 288 289 290 289 290 290 293 294 299 301 300 303 304 306 308 309 310 308 309 308 306 307 309 312 312 313 313 311 310 314 317 316 315 316 318 318 317 316 316 316 316 317 317 317 316 315 317 315 315 315 313 313 312 312 312 311 309
288 290 290 289 289 287 287 289 290 290 291 289 292 294 294 296 295 298 301 302 304 302 304 305 304 306 306 308 309 309 309 309 309 308 311 313 314 316 315 314 315 316 316 316 316 316 315 315 316 317 315 314 314 314 314 313 312 311 311 311 310 303
289 288 288 288 288 289 290 290 290 289 290 290 289 291 289 290 288 295 298 298 301 302 301 303 303 305 306 306 306 306 306 306 307 309 308 310 315 313 313 314 313 314 315 315 315 315 315 314 312 311 312 313 312 312 312 312 311 310 310 308 306 304
291 291 289 289 287 287 288 288 290 289 289 289 288 287 287 287 288 291 294 295 298 301 302 303 304 304 305 305 305 302 301 303 302 304 307 305 309 311 311 311 312 311 313 313 313 313 313 313 312 312 312 312 311 311 310 308 306 305 304 304 303 302
292 291 290 288 288 287 287 287 287 289 289 290 288 286 286 286 287 288 291 293 294 297 299 300 299 299 300 299 299 299 298 298 298 300 300 299 303 304 306 308 309 309 309 311 311 312 311 312 312 311 310 309 309 307 307 307 306 304 301 298 298 296
293 293 292 291 287 287 288 287 287 286 286 286 287 286 287 286 288 289 289 291 292 294 294 294 294 295 296 295 296 296 297 298 298 297 298 299 302 302 304 306 307 307 307 306 307 308 307 308 308 307 306 306 306 306 306 305 303 301 299 295 293 292
293 292 290 288 289 289 288 288 288 288 288 288 287 287 287 287 288 291 290 291 292 292 293 294 294 295 295 296 297 297 295 294 293 293 294 296 296 297 297 299 302 303 304 304 302 300 301 303 305 299 300 301 305 302 302 300 299 297 296 294 291 290
291 289 290 290 291 291 291 291 290 288 287 287 288 289 289 288 289 291 292 292 292 292 292 293 294 294 295 296 294 292 293 293 291 291 292 291 292 293 293 295 298 298 297 299 299 298 300 300 300 296 299 300 300 301 300 300 297 294 293 292 292 292
291 290 291 291 291 291 291 291 290 288 289 288 288 289 289 289 291 292 292 292 292 292 292 293 293 293 294 292 293 292 290 289 290 291 290 290 290 290 290 293 294 294 294 294 294 296 295 295 294 297 297 298 298 297 298 297 295 293 293 292 293 292
292 291 291 290 292 292 292 293 290 291 292 291 289 289 290 289 291 292 293 292 292 292 292 292 292 293 292 292 291 289 289 289 289 289 290 291 289 289 292 292 292 291 290 293 294 293 292 292 294 296 296 296 297 297 296 296 295 293 292 290 290 289
291 291 291 292 293 292 291 290 292 292 291 289 288 290 291 290 291 293 293 292 292 292 291 291 292 292 292 291 290 289 289 290 290 288 288 288 287 290 290 289 290 289 290 292 293 292 291 291 292 295 295 295 296 296 296 293 292 290 290 289 289 289
293 292 290 290 291 290 289 289 290 288 288 288 289 290 291 292 292 292 293 292 292 291 292 292 292 292 291 290 290 290 290 290 288 288 288 289 290 290 291 290 290 290 290 290 290 290 290 290 292 294 294 295 295 296 294 290 290 289 289 289 289 289
294 294 293 292 290 291 290 292 290 289 289 286 289 289 291 292 293 293 292 292 291 292 292 292 292 291 290 289 289 290 289 289 289 289 287 288 288 287 288 288 289 289 289 289 289 290 289 288 291 292 293 294 295 295 290 289 289 289 288 288 288 288
293 292 291 290 291 291 291 291 289 289 288 287 287 288 289 291 292 292 291 292 291 292 292 292 292 291 290 289 289 289 289 288 288 288 288 288 288 288 288 289 287 288 289 288 289 289 288 287 289 292 292 293 294 292 289 289 288 288 287 287 287 287
293 293 292 292 291 291 290 289 289 289 289 288 287 288 289 290 291 292 291 292 292 292 292 292 292 291 289 289 289 289 288 288 288 288 288 289 288 288 288 288 287 287 288 288 288 289 289 288 288 291 292 293 293 290 288 288 288 287 286 286 285 285
297 294 291 291 291 291 290 290 289 289 289 289 288 288 289 290 291 291 291 292 292 292 291 291 291 291 289 289 289 289 288 288 288 288 288 289 289 288 287 287 288 287 287 287 287 287 288 287 287 289 291 292 292 289 288 288 287 286 286 285 284 284
294 290 291 291 292 292 290 289 289 289 290 290 288 288 289 290 291 292 291 291 291 291 291 291 290 290 290 289 289 288 288 288 288 287 288 288 289 288 287 287 287 287 286 286 286 286 286 287 286 287 291 291 291 290 288 287 288 286 285 285 284 283
296 296 295 295 294 290 289 289 289 290 290 290 288 289 290 292 291 289 290 291 291 291 291 290 290 290 289 289 289 288 288 288 288 287 287 287 287 287 287 286 286 286 285 285 285 285 285 286 286 287 290 291 291 290 288 287 287 287 286 285 285 284
293 293 293 292 291 290 289 289 290 290 290 289 289 291 292 290 289 289 289 290 290 290 290 289 289 289 289 288 288 288 287 287 287 287 287 287 287 286 286 286 286 286 285 285 285 285 285 285 286 286 288 290 291 290 289 287 287 287 286 285 285 284
293 293 294 294 289 288 288 289 289 290 289 289 291 292 291 289 288 289 289 289 289 289 289 288 288 288 288 288 288 288 287 286 286 286 286 286 286 286 286 285 285 285 285 284 284 285 285 285 285 286 287 289 290 290 289 288 287 289 286 286 284 284
292 293 293 292 288 287 287 288 289 289 289 290 292 290 287 287 287 288 288 288 288 288 288 288 288 288 288 288 287 287 287 286 286 286 286 286 287 286 286 285 285 285 285 284 284 284 284 285 285 285 286 288 289 290 289 289 289 288 286 286 285 284
294 294 293 293 288 286 287 288 289 289 289 291 291 288 288 287 287 288 288 288 288 288 288 288 288 288 288 287 287 287 287 286 286 286 286 286 286 287 286 285 286 285 285 284 283 283 283 284 284 285 285 286 288 289 290 289 289 289 288 285 284 284
290 290 291 292 289 287 286 287 288 289 290 291 288 288 287 287 287 287 287 287 288 287 287 287 287 287 287 287 287 287 287 286 286 286 286 286 286 286 286 285 285 285 285 284 283 283 283 283 284 284 285 285 286 287 288 288 287 286 285 284 283 283
289 289 289 290 291 287 286 286 287 289 288 285 286 286 287 287 287 287 287 287 287 287 287 287 287 287 287 287 287 287 287 287 287 286 286 286 286 286 286 286 285 285 285 284 283 283 282 282 283 283 283 284 286 286 286 286 285 284 283 282 282 283
289 289 289 290 291 288 286 285 286 286 282 283 286 286 287 287 287 287 287 287 287 287 287 288 286 286 286 286 287 286 286 286 287 287 286 286 286 286 285 285 285 285 285 284 283 282 282 282 282 283 283 284 285 285 286 285 284 283 281 278 276 276
288 289 289 290 289 285 285 284 283 281 282 285 286 287 287 287 287 287 287 287 287 287 287 287 287 287 286 286 286 286 287 286 286 287 286 286 288 288 287 286 286 286 286 286 284 282 282 282 282 283 285 283 285 284 284 283 282 280 277 278 278 274
286 287 288 288 283 282 283 282 280 281 283 285 286 287 287 287 287 287 287 287 287 287 287 287 287 286 286 286 285 283 282 283 286 286 287 285 284 286 286 287 287 287 286 285 283 282 284 283 283 284 284 284 285 285 284 283 282 280 278 282 282 276
283 283 284 284 279 279 280 281 280 282 284 285 286 287 287 287 287 287 287 287 287 287 287 287 286 286 286 285 284 284 282 282 282 284 284 284 284 285 285 285 285 286 285 283 280 280 283 284 284 285 285 285 285 285 285 284 284 283 284 283 278 272
282 282 282 280 279 280 280 280 279 281 283 285 286 287 287 287 287 287 287 287 287 286 286 287 286 285 284 284 283 283 282 281 280 280 283 284 283 283 283 283 283 283 283 282 280 279 279 283 284 285 285 285 285 285 285 285 285 285 285 284 281 271
279 278 277 278 279 279 279 279 278 278 281 284 286 286 286 287 287 287 286 286 286 286 285 285 285 284 284 283 283 282 282 281 280 279 278 280 283 284 283 283 283 283 283 282 282 282 281 282 284 284 284 285 285 285 285 285 285 285 285 283 274 271
277 277 277 277 278 278 277 277 275 276 278 280 284 286 286 286 286 286 286 286 285 285 285 285 285 284 284 284 283 283 282 282 281 279 278 277 278 279 280 282 283 283 283 283 284 284 284 284 284 284 284 284 285 285 285 285 283 285 285 280 272 272
276 275 275 276 276 276 275 274 271 271 272 277 283 285 286 286 285 285 281 280 281 285 284 284 284 284 283 283 283 282 282 281 280 279 278 278 277 277 276 276 278 281 282 281 281 283 283 284 284 284 284 284 285 285 285 285 281 280 278 276 272 272
275 274 274 274 274 274 273 272 271 272 272 276 281 284 284 284 283 282 282 282 282 283 283 283 283 283 283 282 282 282 282 280 278 278 277 276 275 274 273 272 272 273 279 281 282 283 283 283 283 284 284 284 285 284 283 276 275 275 274 274 274 276
Wind_Speed
10 9 10 10 8 8 8 7 5 6 7 9 11 13 14 13 12 12 12 12 11 11 13 13 13 12 12 12 11 9 10 12 11 11 12 8 7 7 7 8 8 8 8 9 9 9 10 10 11 10 10 10 10 10 9 9 10 10 10 9 10 11
9 10 10 10 9 8 7 6 5 8 9 8 9 9 7 7 9 10 10 11 11 11 10 10 12 12 12 12 11 11 12 13 11 11 10 10 5 7 7 8 8 8 8 8 9 9 9 10 10 10 10 9 10 9 9 9 10 11 12 9 8 8
8 8 7 7 5 5 5 6 8 8 5 8 9 10 9 9 11 10 11 10 11 11 12 12 12 13 12 11 10 11 12 11 10 10 9 5 8 7 7 8 9 8 9 9 9 10 10 10 10 10 10 10 10 9 9 9 10 11 10 10 9 7
8 6 6 4 4 6 6 6 5 6 8 9 8 7 8 10 10 10 10 9 9 11 12 11 9 10 9 10 10 11 11 10 10 9 7 9 9 7 8 9 9 8 9 9 10 10 11 11 10 9 9 10 10 10 9 9 10 10 11 10 11 9
7 5 6 6 6 6 5 5 6 8 7 6 6 8 10 8 8 7 7 8 9 11 11 9 8 8 8 10 10 10 11 10 8 7 9 9 8 7 9 9 9 9 9 10 10 11 10 11 10 8 8 9 10 10 10 10 10 10 10 9 9 10
5 5 5 5 5 5 5 6 5 5 6 6 5 9 8 6 6 6 7 8 9 9 7 8 8 7 8 9 9 10 10 9 7 7 8 9 7 9 8 9 10 9 10 11 11 11 10 11 11 9 8 9 9 9 9 8 9 10 10 10 9 7
7 6 5 5 5 4 5 5 6 6 7 5 8 8 6 6 5 6 7 7 8 7 7 8 7 8 9 11 9 10 9 8 8 8 10 9 9 9 8 8 8 9 10 11 10 11 10 9 9 11 11 9 8 9 9 9 9 9 9 8 8 7
5 5 6 5 5 6 5 5 5 5 5 7 5 6 5 6 4 6 6 6 7 7 8 8 8 10 10 10 8 9 8 8 7 8 7 8 9 8 8 9 8 9 9 9 10 10 11 10 8 6 7 9 9 9 8 8 8 8 8 7 6 7
9 8 5 6 5 5 5 5 6 5 6 6 5 4 4 4 4 4 5 6 7 7 9 9 9 8 8 8 7 5 5 6 5 6 7 6 7 7 8 8 9 9 9 9 8 8 7 7 8 8 8 7 7 7 8 7 5 5 6 6 6 6
8 8 8 6 7 6 6 6 6 6 6 7 5 4 4 2 3 4 5 5 7 8 8 7 5 5 5 4 4 4 4 4 4 5 4 4 6 6 6 7 8 7 7 7 7 7 7 7 8 7 6 6 6 6 6 7 8 7 5 5 6 5
11 11 9 8 5 7 8 7 7 5 6 5 5 4 6 4 5 5 5 5 7 7 4 4 4 3 3 3 3 4 4 5 5 5 5 5 6 6 6 6 6 7 7 6 6 6 6 7 6 5 6 5 5 6 7 6 6 6 6 5 4 4
11 8 4 4 6 7 7 7 7 7 8 7 6 6 6 6 7 7 7 8 8 5 4 4 4 5 4 5 6 6 5 5 5 6 5 6 6 5 5 5 6 6 6 6 6 5 4 5 5 7 11 9 7 5 5 5 6 6 6 6 5 4
9 7 6 8 8 10 10 9 7 6 6 7 7 8 7 7 8 7 7 8 5 5 5 5 5 5 6 6 5 5 6 5 5 5 4 4 4 5 5 6 6 6 5 6 5 5 5 5 5 9 10 11 11 7 6 7 6 5 5 5 6 6
10 10 10 10 9 8 8 9 8 6 10 9 9 8 6 8 8 8 7 6 5 6 6 6 6 6 5 5 6 5 5 4 4 4 4 4 4 4 3 5 5 5 5 5 5 5 5 5 7 10 10 10 11 9 6 5 6 6 6 6 6 5
12 11 9 7 10 10 12 10 6 9 12 10 8 7 8 8 8 7 6 5 6 6 6 6 6 6 6 6 5 5 5 4 4 4 4 4 4 4 5 5 5 4 4 6 6 5 5 5 7 10 10 10 11 11 9 5 6 7 5 4 3 4
7 9 12 13 11 10 7 5 9 7 1 3 6 10 8 9 8 7 6 6 6 6 6 7 7 7 6 6 6 5 5 5 5 4 4 4 4 4 4 4 5 5 5 5 6 6 5 5 7 9 10 11 12 11 8 4 4 4 4 5 6 6
10 11 10 10 10 7 5 6 7 5 3 5 7 7 9 9 8 7 7 7 7 6 7 7 7 7 7 7 7 6 6 5 4 4 4 5 6 6 6 6 5 5 5 5 5 5 5 5 7 8 9 9 9 10 7 5 5 5 4 5 5 5
15 15 12 7 5 8 8 10 6 6 7 3 4 6 7 8 8 8 7 8 8 8 8 8 8 7 7 7 6 7 6 6 7 7 5 4 4 3 3 3 4 6 6 5 5 5 5 4 6 7 7 8 8 10 5 5 6 6 5 5 4 4
8 9 7 7 8 8 10 8 5 6 5 5 6 5 6 7 9 10 10 10 9 9 9 9 9 9 8 8 8 7 7 7 7 5 5 5 5 5 5 5 4 5 6 5 5 5 4 3 4 6 8 9 11 8 5 6 5 5 5 5 5 4
8 9 9 11 11 11 7 5 7 7 7 8 6 7 8 9 11 10 10 11 11 10 10 9 9 10 9 8 9 8 7 7 6 6 6 6 6 5 5 4 3 3 4 5 5 5 5 4 5 8 9 12 12 9 7 5 5 5 5 5 3 3
12 10 7 9 12 12 9 9 9 8 10 9 8 8 8 10 11 10 12 13 11 10 10 10 9 9 9 9 9 9 9 9 8 6 6 6 6 5 4 4 4 3 2 2 3 4 4 4 4 5 8 11 12 9 6 6 6 6 4 5 4 3
4 4 9 12 16 13 9 8 8 10 12 11 8 8 11 12 14 14 8 7 9 10 10 10 10 10 10 10 8 7 7 5 5 6 6 5 5 5 5 4 4 5 3 2 2 2 2 3 2 2 7 10 11 9 7 6 7 6 6 4 5 4
11 14 15 16 14 7 7 8 9 12 13 12 10 14 15 15 10 7 8 8 9 10 11 9 10 10 8 7 7 6 5 5 5 5 5 5 4 5 5 5 4 4 4 2 2 3 2 3 4 3 7 9 10 9 9 5 5 5 6 5 5 5
10 12 14 12 9 8 10 11 13 13 12 10 14 17 15 9 7 8 8 10 11 10 10 9 7 7 8 6 7 7 6 4 4 5 5 4 5 6 6 5 5 5 4 3 2 3 3 2 4 4 7 9 11 10 8 6 4 6 7 6 5 4
11 14 16 13 7 8 8 10 13 13 11 14 19 16 11 9 8 9 10 10 10 10 10 9 9 9 7 8 7 8 7 5 5 5 5 7 6 7 7 6 6 6 5 4 3 2 3 3 2 6 6 10 12 11 9 9 7 8 7 7 6 5
12 14 14 12 7 8 9 11 14 12 13 18 18 8 7 7 8 8 9 9 9 9 9 9 9 8 7 8 8 7 8 7 6 6 6 6 7 7 7 6 6 6 6 6 4 3 3 2 3 3 6 8 12 12 12 11 10 9 6 6 5 5
17 16 15 13 7 8 10 11 14 15 16 18 9 10 11 10 10 10 10 10 10 10 8 8 8 8 8 8 9 9 8 8 8 7 5 7 6 7 7 7 6 7 7 6 6 5 4 3 3 3 4 7 11 12 12 12 12 10 10 6 5 6
11 12 14 16 11 10 10 12 13 16 18 12 7 9 9 11 12 12 12 10 9 9 9 10 8 8 8 8 7 8 7 8 8 7 7 6 6 6 7 7 7 7 7 7 7 6 6 5 4 4 4 4 7 8 11 11 11 11 9 8 7 9
11 13 14 16 15 10 10 11 11 14 7 3 6 7 9 10 11 10 9 10 9 9 10 11 9 9 8 8 7 6 7 7 7 7 7 7 7 6 6 7 8 7 7 7 7 6 6 6 5 5 5 4 5 5 7 8 7 9 10 7 6 7
11 14 14 15 17 9 9 9 11 9 5 4 7 9 10 11 11 12 12 12 10 10 10 10 11 10 8 8 8 8 7 7 7 8 9 9 8 8 7 7 7 8 8 8 7 6 5 5 6 6 7 6 5 5 5 5 6 6 5 6 5 6
12 14 14 16 11 5 8 9 8 5 6 6 7 9 11 10 10 8 9 9 9 9 9 8 9 9 9 8 7 5 5 7 6 6 4 3 5 8 9 8 6 6 7 8 10 9 7 6 7 8 4 5 6 8 8 7 6 6 6 7 10 8
11 13 13 13 6 5 6 6 5 5 5 6 7 9 11 10 9 9 9 9 8 8 9 8 8 8 8 9 8 8 6 6 5 3 6 5 3 3 2 5 6 8 7 6 3 4 8 10 8 8 10 9 9 8 7 8 9 9 8 11 13 8
9 9 10 9 3 4 4 3 4 5 6 6 8 9 9 10 9 8 8 9 9 10 9 9 9 8 8 8 9 8 8 6 6 9 8 4 4 7 7 6 6 8 6 8 7 3 4 9 12 13 11 11 10 10 11 12 13 13 15 14 9 6
10 9 9 4 2 3 3 3 3 4 4 6 7 8 9 10 10 10 10 9 8 10 9 8 9 9 9 8 8 8 9 8 7 6 8 8 6 7 8 9 9 9 8 7 9 9 6 8 11 13 12 12 12 12 12 14 14 15 15 13 10 7
8 6 4 1 1 2 2 3 3 2 3 4 6 7 8 9 9 9 9 9 9 10 10 9 10 10 10 11 10 10 9 9 9 9 6 6 10 10 9 9 10 11 11 12 9 10 11 9 10 13 13 13 13 14 13 14 15 15 15 11 7 7
5 4 3 2 1 1 2 3 1 2 2 2 3 5 6 7 7 6 7 9 10 11 10 10 10 10 10 9 9 9 9 9 9 9 9 8 8 7 8 10 10 11 13 12 12 11 11 11 11 12 13 13 13 13 15 14 11 14 12 8 7 6
3 4 3 2 1 1 2 3 2 2 3 3 2 4 5 6 5 5 6 9 9 8 8 8 8 9 9 9 10 10 10 10 9 10 10 9 9 8 7 5 5 6 7 8 8 11 11 11 11 11 11 12 13 14 15 13 9 8 6 5 4 5
1 2 3 3 1 1 1 2 3 4 3 3 2 3 5 5 5 5 5 6 8 7 7 7 8 8 9 9 9 9 9 9 10 9 9 8 7 8 8 5 5 4 6 10 10 11 11 12 12 12 11 11 12 14 13 8 6 6 5 5 4 4
Wind_Direction
242 234 233 236 239 238 232 236 217 219 220 217 213 215 211 206 204 206 210 207 208 209 210 209 211 214 217 219 218 208 211 217 217 218 223 219 201 193 187 187 196 195 198 203 210 209 212 214 216 215 216 213 218 217 220 217 216 218 222 220 218 223
244 233 232 237 233 233 235 230 220 218 218 209 218 224 214 204 207 206 211 210 208 212 210 212 212 213 215 215 209 210 214 219 216 219 222 218 190 199 191 193 199 195 197 203 210 215 215 214 216 215 214 211 215 215 216 215 213 219 222 223 217 220
258 254 250 252 261 253 244 222 217 222 210 216 215 211 209 205 208 203 211 204 210 212 211 211 209 213 214 215 209 211 216 220 216 217 219 196 209 197 190 200 202 200 203 207 210 216 217 216 217 215 214 214 217 215 214 214 214 219 223 222 224 218
260 265 272 264 256 250 233 231 233 228 216 217 213 213 214 208 209 205 209 204 207 212 216 215 211 213 211 213 213 213 217 219 215 213 204 208 214 192 196 203 203 203 204 209 215 218 220 220 219 215 214 216 217 218 213 215 214 218 224 220 222 218
263 266 266 259 238 241 234 230 219 221 222 219 218 211 220 208 210 203 203 202 205 215 217 213 212 204 205 209 213 215 216 218 213 198 205 210 212 194 198 203 202 203 204 211 217 219 220 221 221 219 215 217 218 218 217 215 213 215 218 216 218 218
283 285 268 260 251 239 231 224 224 227 224 221 216 221 223 209 210 200 202 208 215 216 210 211 208 196 203 208 211 214 214 212 206 195 204 208 204 203 206 203 203 202 206 214 218 221 223 221 220 220 218 218 218 220 218 213 213 213 216 218 221 221
264 255 249 243 243 245 238 227 223 216 221 212 214 224 218 215 203 199 210 208 215 213 210 215 202 203 208 211 208 213 208 205 202 196 203 204 208 210 201 205 207 209 211 215 216 219 220 220 217 219 216 214 212 212 214 214 212 215 218 220 222 213
270 263 246 238 235 230 230 232 230 227 227 227 217 215 213 219 203 210 203 205 209 213 212 214 206 212 214 213 214 212 208 204 204 203 207 203 209 204 204 202 204 209 216 217 219 216 215 216 216 212 213 212 212 213 215 216 215 214 215 214 214 201
255 248 247 232 239 237 239 236 238 233 231 237 227 224 216 205 193 207 205 203 209 210 214 211 212 212 214 214 216 210 205 206 204 200 206 197 205 204 205 207 207 210 214 216 212 211 208 209 212 217 219 217 214 210 211 213 208 209 209 210 200 192
265 259 245 233 235 236 243 234 232 231 224 231 230 217 214 184 164 185 204 201 215 221 218 215 212 213 219 218 209 200 198 190 190 199 195 181 199 206 205 205 207 210 206 213 211 213 211 215 219 215 215 217 212 204 206 205 206 206 200 199 203 197
240 240 234 230 224 235 238 238 238 237 244 238 228 206 212 181 181 191 195 198 213 220 211 204 206 198 195 188 187 190 192 192 194 193 193 193 201 203 209 208 206 207 211 215 216 217 214 209 210 204 203 201 205 203 208 206 199 194 196 192 176 163
243 245 261 256 238 245 243 236 232 223 224 227 212 209 209 167 197 199 202 210 214 198 189 187 183 184 184 187 193 195 188 184 182 180 185 197 202 205 207 207 206 203 203 205 214 214 200 201 202 200 197 196 195 187 180 167 179 186 186 180 172 172
247 252 245 239 230 230 229 229 225 216 224 219 202 206 194 169 194 207 204 215 199 185 177 181 186 176 186 184 169 164 159 158 156 156 163 168 175 188 194 190 193 196 196 194 193 192 195 195 189 184 184 186 179 173 177 181 181 172 168 171 176 187
248 239 235 236 238 234 227 229 219 199 227 210 201 190 170 174 193 200 207 204 184 185 183 188 180 180 180 162 163 155 149 142 143 147 153 148 153 157 150 156 178 182 171 168 174 181 180 179 177 170 175 175 173 168 168 164 161 166 173 181 189 190
234 236 239 240 239 232 229 215 183 213 219 207 191 149 172 169 189 195 197 186 183 186 183 180 180 179 172 172 154 148 138 138 139 145 149 172 177 147 159 169 156 172 166 154 159 173 179 182 187 172 170 172 171 170 165 171 168 171 180 171 163 152
258 240 231 229 232 230 240 190 208 223 243 202 164 166 170 164 189 189 187 178 184 181 177 177 177 176 174 162 154 148 147 149 167 172 166 147 153 166 165 160 162 159 168 172 169 173 181 180 194 184 181 178 176 175 164 148 146 142 149 163 163 158
240 246 246 242 238 237 219 218 213 214 159 179 184 181 164 177 184 190 185 182 182 176 175 175 175 172 168 165 161 159 163 165 162 169 177 171 174 175 176 172 169 178 173 172 165 162 174 189 186 186 180 173 166 163 144 129 127 130 137 150 155 149
231 232 238 241 231 238 216 223 195 182 209 187 209 181 176 170 179 192 183 187 187 185 180 174 172 169 167 166 165 167 174 180 182 184 183 171 173 171 151 158 156 166 171 169 160 155 172 194 190 178 174 161 155 140 124 132 132 134 136 127 122 141
238 242 237 238 228 231 226 221 176 190 177 185 203 186 179 174 189 195 192 193 188 187 182 180 174 173 174 171 173 180 181 181 186 184 170 164 174 166 174 172 171 170 162 164 167 160 164 180 199 181 165 155 144 130 127 127 125 122 118 124 144 152
226 230 219 230 234 229 220 187 187 182 196 205 194 191 194 192 206 199 194 197 189 184 180 183 179 178 177 178 187 185 182 182 182 180 175 171 169 176 179 164 148 161 165 165 172 172 162 180 185 172 162 153 151 144 141 136 124 125 130 136 136 139
231 226 218 231 239 235 204 199 185 185 207 209 202 204 205 210 212 199 201 199 184 178 179 179 179 178 179 188 193 184 183 185 182 172 174 178 169 172 159 152 146 138 131 178 173 169 158 163 183 175 159 154 148 140 135 135 134 140 154 144 133 109
273 229 224 229 234 229 201 192 181 200 210 212 195 198 215 217 214 209 196 171 173 177 177 180 182 183 186 192 185 185 185 170 166 168 170 173 168 158 153 146 143 148 146 119 122 120 121 139 128 153 157 156 152 140 135 141 143 153 148 142 138 133
236 238 234 232 235 215 186 183 190 210 215 207 194 214 216 218 211 180 177 174 171 176 181 182 185 185 186 180 179 172 167 170 171 159 163 159 142 134 136 139 137 124 114 100 107 117 98 129 139 145 160 162 155 140 142 152 142 137 140 144 147 159
253 252 257 248 229 195 191 186 202 215 212 202 215 222 218 207 189 172 168 175 180 178 178 181 181 176 174 168 162 169 172 159 153 159 152 145 146 144 140 135 132 126 119 106 108 112 117 127 140 149 158 160 156 150 133 132 143 148 141 141 150 147
261 253 251 251 212 204 191 186 206 217 208 211 222 219 205 190 173 173 174 173 175 178 177 176 174 173 168 169 169 164 161 153 151 152 150 151 150 147 142 141 140 137 132 125 115 110 110 110 122 146 150 157 155 152 140 143 147 145 139 144 153 162
255 259 258 253 213 199 192 186 209 215 211 222 226 197 173 169 173 168 169 175 176 170 173 172 172 168 167 165 160 158 157 158 157 151 158 158 154 151 146 149 152 146 147 145 138 130 108 108 124 132 142 153 156 154 147 149 148 143 148 138 142 145
249 252 260 257 222 204 200 201 208 217 218 230 202 181 181 172 166 168 174 178 176 173 167 160 167 170 166 165 160 160 161 158 159 157 163 159 160 162 158 161 165 161 156 149 151 145 141 146 136 132 135 146 157 156 153 152 147 140 131 122 133 138
258 262 261 264 240 217 208 210 206 216 225 221 183 186 166 167 168 175 179 173 170 168 158 160 163 164 165 160 166 164 162 161 164 163 161 164 167 168 165 163 166 163 158 158 155 158 162 154 152 145 141 144 149 155 156 152 150 147 138 129 131 136
255 253 249 255 254 225 222 216 220 227 237 151 168 160 166 166 173 172 169 170 166 161 162 165 168 164 165 163 159 159 159 161 164 164 164 169 168 170 172 168 168 165 163 159 159 155 157 149 148 157 152 156 150 149 150 146 143 126 110 105 112 112
249 253 251 250 253 228 222 220 226 223 204 170 158 161 162 172 176 177 177 173 168 169 169 169 163 162 160 163 159 157 159 167 171 173 176 177 173 170 174 171 173 172 169 160 157 155 143 148 146 178 171 159 153 144 139 141 140 137 131 119 110 107
254 252 254 255 257 226 219 222 225 202 191 179 167 161 168 176 175 171 167 166 164 167 169 164 164 165 158 151 147 142 152 165 174 172 169 179 172 175 168 172 182 181 178 164 161 157 163 168 182 196 171 164 153 150 148 153 147 135 129 135 127 101
254 260 259 263 267 239 229 220 204 190 181 168 172 170 173 170 164 165 169 169 169 164 163 162 161 160 154 151 144 130 88 49 87 148 171 173 156 133 189 179 180 178 164 150 138 160 170 180 185 150 153 149 142 132 116 118 124 131 133 139 126 117
269 267 267 269 266 245 233 215 200 188 180 176 173 176 177 166 169 171 169 168 176 173 168 160 159 160 155 148 143 139 131 116 61 52 58 76 131 139 135 133 123 135 140 147 140 107 91 113 124 142 142 137 131 126 126 127 131 134 138 133 114 89
286 275 273 288 238 234 224 217 212 204 186 180 178 179 177 178 175 177 177 175 166 161 165 163 159 154 150 150 147 143 142 132 118 72 46 63 97 100 113 121 123 122 117 121 123 124 84 117 130 135 137 136 135 133 134 137 140 143 145 140 116 102
297 300 314 315 269 241 235 219 226 247 221 194 185 182 181 184 182 175 169 166 161 161 161 160 161 162 159 157 154 153 150 145 142 130 115 60 59 74 92 101 108 111 120 122 115 123 133 141 139 135 136 138 139 138 138 138 139 144 142 121 90 115
323 326 331 337 323 241 230 221 287 310 296 287 208 184 186 184 186 175 173 170 167 164 167 168 167 165 164 159 155 152 150 147 142 138 133 129 120 82 54 53 72 100 110 109 111 113 120 129 133 134 133 134 134 134 134 132 130 133 133 113 119 117
342 326 334 333 333 249 222 210 269 312 314 302 263 179 173 171 166 156 152 155 161 167 166 164 162 162 157 158 157 155 153 148 147 144 146 151 145 135 125 121 69 59 81 110 112 117 116 118 118 119 121 125 129 131 130 120 119 120 103 77 91 113
14 344 333 328 322 313 269 298 325 322 311 299 273 183 159 153 148 146 150 158 161 156 159 161 161 160 160 161 159 155 147 143 146 150 146 133 124 127 128 103 74 66 74 96 111 115 113 109 107 111 112 113 115 121 117 108 116 107 110 112 120 126